Location: Bryzozowice
(50.3667°N, 18.9667°E)
Time: 14:40:44
(UTC+00:00)

STARLINK-1075 - Pass Details

Date: 24 January 2020
Orbit: 349 x 351 km, 53.0° (Epoch: 21 February)

Event Time Altitude Azimuth Distance (km) Brightness Sun altitude
Rises 17:01:44 0° 277° (W) 2,176 8.1 -15.6°
Reaches altitude 10° 17:03:48 10° 284° (WNW) 1,332 6.6 -15.9°
Maximum altitude 17:06:41 47° 360° (N) 482 3.2 -16.3°
Enters shadow 17:07:08 43° 31° (NNE) 518 3.2 -16.4°
